Regional Weather Roundup
Issued by NWS Sioux Falls, SD

Home | Current Version | Previous Version | Graphics & Text | Print | Product List | Glossary On
Versions: 1 2 3 4 5 6 7 8 9 10 11 12 13 14 15 16 17 18 19 20 21 22 23 24 25 26 27 28 29 30 31 32 33 34 35 36 37 38 39 40 41 42 43 44 45 46 47 48 49 50
000
ASUS43 KFSD 230210
RWRFSD

WEATHER ROUNDUP FOR SE SOUTH DAKOTA/SW MINNESOTA/NW IOWA
NATIONAL WEATHER SERVICE SIOUX FALLS SD
900 PM CDT MON MAY 22 2017

NOTE: "FAIR" INDICATES FEW OR NO CLOUDS BELOW 12,000 FEET WITH NO
SIGNIFICANT WEATHER AND OR OBSTRUCTIONS TO VISIBILITY.


SDZ038>040-050-052>070-230300-
SOUTHEAST SOUTH DAKOTA

CITY           SKY/WX    TMP DP  RH WIND       PRES   REMARKS
BROOKINGS      CLOUDY    50  48  93 NW7       29.90R
CHAMBERLAIN    CLOUDY    57  46  64 W8        29.98R
HURON          CLOUDY    54  44  69 N9        29.94R
MADISON        CLOUDY    48  48 100 NW10      29.91S
MITCHELL       CLOUDY    54  45  71 W6        29.95R
SIOUX FALLS    CLOUDY    52  45  77 N7        29.91R
WINNER         MOCLDY    55  45  68 W9        30.00R
YANKTON        CLEAR     51  45  79 NW8       29.94R
$$

MNZ071-072-080-081-089-090-097-098-230300-
SOUTHWEST MINNESOTA

CITY           SKY/WX    TMP DP  RH WIND       PRES   REMARKS
FAIRMONT       CLOUDY    53  50  89 N14       29.85R
JACKSON        LGT RAIN  50  46  87 VRB8G16   29.87S
LUVERNE        CLOUDY    52  41  66 N9        29.90R
MARSHALL       LGT RAIN  51  49  92 W7        29.89R
MONTEVIDEO     MOCLDY    54  45  71 N9        29.88R
PIPESTONE      RAIN      52  45  76 N7        29.90R
REDWOOD FALLS  CLOUDY    57  44  62 N8        29.86R
TRACY          RAIN      52  49  92 W3        29.88R
WINDOM         MOCLDY    52  48  87 NW7       29.87R
WORTHINGTON    CLOUDY    51  47  86 NW13      29.89R
$$

IAZ001>003-012>014-020>022-031-032-NEZ013-014-SDZ071-230300-
NORTHWEST IOWA

CITY           SKY/WX    TMP DP  RH WIND       PRES   REMARKS
CHEROKEE       CLEAR     56  49  77 NW13      29.87R
DENISON        PTCLDY    59  48  67 NW6       29.89R
ESTHERVILLE    CLOUDY    54  53  97 N13       29.85R
LE MARS        PTCLDY    55  48  76 N12G21    29.91R
ORANGE CITY    CLEAR     54  46  76 N8G18     29.90R
SHELDON        CLEAR     52  46  82 N14         N/A
SIOUX CITY     MOCLDY    58  48  69 N16       29.90R
SPENCER        PTCLDY    56  51  84 N20       29.85R
STORM LAKE     PTCLDY    59  48  67 NW15      29.86R
$$

ABBREVIATIONS USED IN REMARKS
   TC - TEMPERATURE IN CELSIUS
  WCI - WIND CHILL INDEX
   HX - HEAT INDEX
  VSB - VISIBILITY





USA.gov is the U.S. government's official web portal to all federal, state and local government web resources and services.